STARLINK-1154 (45198 NORAD) Tracking and Keplerian Element Data

This shows tracking and keplerian element data for the satellite.

Feedback or suggestion? Click here.




ElementValue
Catalog45198
NameSTARLINK-1154
Epoch Orbit162
Epoch Day93.91667824
Epoch Year2020
RAAN44.4994
Inclination52.9999
Eccentricity0.0001272
Argument of Perigee70.4489
Mean Anonmoly337.4144
Mean Motion15.62766422
Decay Rate-1.708E-05
L11 45198U 20012W 20093.91667824 -.00001708 00000-0 -12814-4 0 9997
L22 45198 52.9999 44.4994 0001272 70.4489 337.4144 15.62766422 1626

Live tracking and technical data element details for STARLINK-1154 (NORAD 45198). STARLINK-1154 can be tracked NOW for your location showing map with azimuth and elevation plus other details from your city location.

Track the satellite on the map from your city or location and see movement details for azimuth, elevation, latitude, longitude, range, height, and movement on the map or in text.







IsCatalogInMostPopularTable: catalog: 45198, numindb: 6
Update: records affected: 1



GetName: 45198 STARLINK-1154

Hit Count: updated at: Tue, 07 Apr 2020 15:57:58 GMT